[[{"header":{"parameterUnit":"m.s-1","parameterCategory":1,"la1":30.2991,"la2":30.254,"lo1":-89.0895,"lo2":-89.0444,"dy":0.0017,"dx":0.0017,"nx":28,"ny":28,"refTime":"2023-09-04T09:00:00:Z","depth":0,"parameterNumber":2,"parameterNumberName":"U-component_of_WINDS"},"data":[0,0,0,0,0,0,0,0,0,0,0,0,0,0,0,0,0,0,0,0,0,0,0,0,0,0,0,0,0,0,0,0,0,0,0,0,0,0,0,0,0,0,0,0,0,0,0,0,0,0,0,0,0,0,0,0,0,0,-3.295,-3.295,0,-3.2935,-3.2935,-3.2935,-3.2911,-3.291,-3.291,-3.2909,-3.2893,-3.2892,-3.2892,0,0,0,0,0,0,0,0,0,0,0,0,0,-3.2958,-3.2958,-3.295,-3.295,-3.295,-3.2935,-3.2935,-3.2935,-3.2911,-3.291,-3.291,-3.2909,-3.2893,-3.2892,-3.2892,0,0,0,0,0,0,0,0,0,0,0,0,0,-3.295,-3.2958,-3.295,-3.2936,-3.2935,-3.2935,-3.2935,-3.2935,-3.2911,-3.291,-3.291,-3.2909,-3.2893,-3.2892,-3.2892,-3.2905,0,0,-3.2892,-3.2892,0,0,0,0,0,0,0,0,-3.295,-3.2949,-3.2938,-3.2937,-3.2935,-3.2924,-3.2931,-3.2925,-3.2911,-3.292,-3.2909,-3.2909,-3.2903,-3.2902,-3.2901,-3.2904,-3.2904,-3.2892,-3.2892,-3.2892,-3.2892,0,0,0,0,0,0,0,-3.2951,-3.295,-3.2944,-3.2938,-3.2936,-3.293,-3.2929,-3.293,-3.2915,-3.2919,-3.2917,-3.2916,-3.2903,-3.2901,-3.29,-3.2903,-3.2892,-3.2892,-3.2892,-3.2892,-3.2917,-3.2918,0,0,0,0,0,0,-3.2953,-3.295,-3.2945,-3.2944,-3.2941,-3.2931,-3.2929,-3.2928,-3.2915,-3.2913,-3.2917,-3.2915,-3.2902,-3.2901,-3.29,-3.2913,-3.2892,-3.2892,-3.2892,-3.2916,-3.2917,-3.2918,0,0,0,0,0,0,-3.2954,-3.2953,-3.2945,-3.2947,-3.2945,-3.2931,-3.2931,-3.2928,-3.2927,-3.2914,-3.2911,-3.2918,-3.2901,-3.29,-3.2904,-3.2913,-3.2892,-3.2892,-3.2915,-3.2916,-3.2917,-3.2941,0,0,0,0,0,0,-3.2954,-3.2953,-3.2958,-3.2947,-3.2945,-3.295,-3.2932,-3.2929,-3.2927,-3.2925,-3.2914,-3.2911,-3.29,-3.2904,-3.2904,-3.2912,-3.2892,-3.2914,-3.2916,-3.2917,-3.294,-3.2943,-3.2946,0,0,0,0,0,-3.2954,-3.2965,-3.2958,-3.2958,-3.2951,-3.2951,-3.2949,-3.2937,-3.2928,-3.2932,-3.2924,-3.2912,-3.2912,-3.2905,-3.2905,-3.2913,-3.2914,-3.2915,-3.2917,-3.2938,-3.2942,-3.2946,0,0,0,0,0,0,-3.2976,-3.2963,-3.2956,-3.2963,-3.2958,-3.2946,-3.2951,-3.2942,-3.2939,-3.2937,-3.2921,-3.2919,-3.2925,-3.292,-3.2912,-3.2925,-3.2911,-3.2913,-3.2928,-3.2931,-3.2935,-3.2935,-3.2892,0,0,0,0,0,-3.2982,-3.2983,-3.2972,-3.2979,-3.2977,-3.2965,-3.2965,-3.2956,-3.295,-3.2947,-3.2939,-3.2934,-3.2933,-3.2932,-3.293,-3.294,-3.2937,-3.2945,-3.2948,-3.2951,-3.2952,-3.2956,-3.296,-3.2923,-3.2923,-3.2923,0,0,-3.2994,-3.2987,-3.2988,-3.2984,-3.2979,-3.298,-3.2963,-3.2965,-3.2966,-3.2947,-3.2951,-3.2945,-3.2938,-3.2945,-3.2948,-3.294,-3.2962,-3.2953,-3.2955,-3.2954,-3.2958,-3.2962,-3.2965,-3.2924,-3.2924,-3.2924,0,0,-3.3015,-3.3011,-3.3016,-3.3012,-3.3006,-3.2998,-3.2999,-3.299,-3.2985,-3.2989,-3.2975,-3.2976,-3.2974,-3.297,-3.2968,-3.299,-3.2978,-3.299,-3.3005,-3.301,-3.3013,-3.3016,-3.3023,-3.3026,-3.2991,-3.2991,-3.2992,0,-3.303,-3.3032,-3.302,-3.3023,-3.3022,-3.3007,-3.3012,-3.3009,-3.3002,-3.3001,-3.2994,-3.2992,-3.2986,-3.2992,-3.2998,-3.2997,-3.2997,-3.299,-3.3014,-3.3016,-3.3018,-3.3025,-3.3028,-3.2993,-3.2993,-3.2993,-3.2992,0,-3.305,-3.3052,-3.3058,-3.3052,-3.3051,-3.3056,-3.3045,-3.3045,-3.3038,-3.303,-3.3035,-3.3028,-3.3024,-3.3026,-3.3017,-3.303,-3.3026,-3.3017,-3.3002,-3.3023,-3.3029,-3.3032,-3.2995,-3.2994,-3.2994,-3.2994,0,0,-3.3083,-3.3072,-3.3074,-3.3072,-3.3065,-3.3065,-3.307,-3.3067,-3.3068,-3.3065,-3.3067,-3.3067,-3.3059,-3.3056,-3.3048,-3.3052,-3.307,-3.3042,-3.3042,-3.3046,-3.3083,-3.3089,-3.3092,-3.3063,-3.3064,-3.3064,-3.3084,0,-3.3102,-3.3108,-3.3099,-3.3107,-3.3108,-3.3095,-3.3099,-3.3095,-3.3089,-3.3089,-3.3083,-3.3083,-3.3072,-3.307,-3.3074,-3.3067,-3.3077,-3.3066,-3.3065,-3.3065,-3.3065,-3.3096,-3.3102,-3.312,-3.3086,-3.3086,-3.3087,0,-3.3124,-3.3122,-3.3131,-3.3124,-3.3124,-3.3127,-3.3125,-3.3126,-3.3121,-3.3117,-3.3115,-3.3105,-3.3109,-3.3097,-3.3102,-3.3095,-3.3094,-3.3091,-3.3091,-3.3089,-3.3076,-3.3093,-3.3126,-3.3128,-3.309,-3.309,-3.309,0,-3.3145,-3.3145,-3.3151,-3.3149,-3.3141,-3.3144,-3.3141,-3.3136,-3.3136,-3.3134,-3.3133,-3.3132,-3.313,-3.313,-3.312,-3.3112,-3.3126,-3.3113,-3.3121,-3.3122,-3.3123,-3.3123,-3.3155,-3.3126,-3.3126,-3.3125,-3.3125,0,-3.3166,-3.3172,-3.316,-3.3163,-3.3169,-3.3159,-3.3166,-3.3161,-3.3157,-3.3159,-3.3148,-3.315,-3.3138,-3.3139,-3.3132,-3.3137,-3.3137,-3.3133,-3.313,-3.3133,-3.3133,-3.313,-3.3128,-3.3126,-3.3126,-3.3126,-3.3126,0,-3.319,-3.3183,-3.3188,-3.3181,-3.3179,-3.3184,-3.3178,-3.318,-3.3175,-3.3177,-3.3177,-3.3168,-3.3169,-3.316,-3.3159,-3.3154,-3.3162,-3.3158,-3.3163,-3.3161,-3.3169,-3.3168,-3.32,-3.3203,-3.3173,-3.3174,-3.3174,0,-3.3203,-3.3207,-3.3201,-3.3202,-3.32,-3.3201,-3.3201,-3.3192,-3.3192,-3.3188,-3.3191,-3.3191,-3.319,-3.3192,-3.3185,-3.3184,-3.3179,-3.3191,-3.3179,-3.3181,-3.3178,-3.3177,-3.3177,-3.3192,-3.3193,-3.3193,-3.3193,0,-3.3227,-3.3223,-3.3224,-3.3223,-3.3223,-3.3222,-3.3221,-3.3222,-3.3212,-3.3213,-3.3214,-3.3213,-3.3213,-3.3213,-3.3211,-3.3207,-3.3198,-3.3197,-3.3199,-3.32,-3.3203,-3.3201,-3.3168,-3.3196,-3.3196,-3.3196,-3.3195,-3.3195,-3.3245,-3.3248,-3.3244,-3.3245,-3.3243,-3.3242,-3.3245,-3.324,-3.3241,-3.324,-3.3235,-3.3236,-3.3233,-3.323,-3.3227,-3.3228,-3.3223,-3.3225,-3.3226,-3.3226,-3.3227,-3.3205,-3.3228,-3.3228,-3.3228,-3.3228,-3.3228,0,-3.3267,-3.3264,-3.3266,-3.3264,-3.3265,-3.3258,-3.3256,-3.3257,-3.3259,-3.3257,-3.3257,-3.3258,-3.3258,-3.3253,-3.3252,-3.3254,-3.325,-3.3254,-3.3253,-3.3252,-3.3233,-3.3231,-3.3258,-3.3258,-3.3258,-3.3258,-3.3258,-3.3258,-3.3278,-3.3283,-3.328,-3.3284,-3.3281,-3.3283,-3.3283,-3.3282,-3.328,-3.3282,-3.3283,-3.3279,-3.3276,-3.3275,-3.3275,-3.3274,-3.3273,-3.3279,-3.3275,-3.3257,-3.3254,-3.3251,-3.3249,-3.3279,-3.3279,-3.3295,-3.3295,-3.3295]},{"header":{"parameterUnit":"m.s-1","parameterCategory":1,"la1":30.2991,"la2":30.254,"lo1":-89.0895,"lo2":-89.0444,"dy":0.0017,"dx":0.0017,"nx":28,"ny":28,"refTime":"2023-09-04T09:00:00:Z","depth":0,"parameterNumber":3,"parameterNumberName":"V-component_of_WINDS"},"data":[0,0,0,0,0,0,0,0,0,0,0,0,0,0,0,0,0,0,0,0,0,0,0,0,0,0,0,0,0,0,0,0,0,0,0,0,0,0,0,0,0,0,0,0,0,0,0,0,0,0,0,0,0,0,0,0,0,0,2.4406,2.4406,0,2.4445,2.4445,2.4446,2.4489,2.449,2.4491,2.4491,2.453,2.453,2.453,0,0,0,0,0,0,0,0,0,0,0,0,0,2.4369,2.437,2.4406,2.4406,2.4407,2.4445,2.4445,2.4446,2.4489,2.449,2.4491,2.4492,2.4529,2.453,2.453,0,0,0,0,0,0,0,0,0,0,0,0,0,2.4394,2.437,2.4406,2.4433,2.4436,2.4445,2.4445,2.4446,2.4489,2.449,2.4491,2.4492,2.4529,2.453,2.4531,2.4515,0,0,2.4532,2.4533,0,0,0,0,0,0,0,0,2.4393,2.4395,2.4429,2.4431,2.4435,2.4463,2.4446,2.4469,2.4489,2.4469,2.4491,2.4493,2.4507,2.4509,2.4514,2.4516,2.4518,2.4532,2.4533,2.4533,2.4533,0,0,0,0,0,0,0,2.4391,2.4394,2.4421,2.4429,2.4433,2.4444,2.4448,2.4451,2.4482,2.4471,2.4474,2.4478,2.4508,2.4514,2.4515,2.4519,2.4532,2.4533,2.4533,2.4534,2.4511,2.451,0,0,0,0,0,0,2.4385,2.4392,2.442,2.4422,2.4416,2.4443,2.4449,2.4453,2.4482,2.4487,2.4477,2.448,2.4512,2.4515,2.4517,2.4501,2.4533,2.4534,2.4534,2.4512,2.4511,2.451,0,0,0,0,0,0,2.4384,2.4387,2.4418,2.4408,2.4413,2.4443,2.4448,2.4453,2.4458,2.4487,2.4492,2.4477,2.4513,2.4516,2.4515,2.4503,2.4534,2.4534,2.4513,2.4512,2.451,2.4468,0,0,0,0,0,0,2.4383,2.4387,2.4381,2.4408,2.4413,2.4416,2.4447,2.4453,2.446,2.4464,2.4488,2.4493,2.4514,2.4514,2.4516,2.4504,2.4535,2.4514,2.4513,2.4511,2.4471,2.4466,2.4461,0,0,0,0,0,2.4381,2.4367,2.438,2.4383,2.4407,2.4415,2.4418,2.4443,2.4458,2.4453,2.4471,2.4492,2.4504,2.4514,2.4516,2.4504,2.4515,2.4513,2.4511,2.4473,2.4467,2.4461,0,0,0,0,0,0,2.4336,2.4371,2.4386,2.438,2.4394,2.4422,2.4416,2.4435,2.4446,2.4449,2.4479,2.4484,2.448,2.4492,2.4502,2.4491,2.4513,2.4511,2.4483,2.4477,2.4472,2.4469,2.4535,0,0,0,0,0,2.4326,2.433,2.436,2.4351,2.4358,2.4386,2.439,2.4408,2.4425,2.4431,2.4449,2.4464,2.4471,2.4475,2.4483,2.4473,2.448,2.4467,2.4462,2.4458,2.4455,2.4452,2.4447,2.4503,2.4503,2.4503,0,0,2.4304,2.4323,2.4324,2.4343,2.4356,2.436,2.439,2.4393,2.4396,2.4431,2.4432,2.4446,2.4464,2.4459,2.4457,2.4469,2.4442,2.4455,2.4451,2.4451,2.4449,2.4444,2.4439,2.4501,2.4502,2.4502,0,0,2.4265,2.428,2.4275,2.4289,2.4309,2.4328,2.4327,2.4353,2.4364,2.4365,2.4392,2.4396,2.4408,2.442,2.4428,2.4396,2.4416,2.4398,2.4372,2.4368,2.4364,2.436,2.4349,2.4345,2.4396,2.4396,2.4396,0,2.4235,2.4242,2.427,2.4271,2.4279,2.4312,2.4308,2.4319,2.4341,2.4345,2.4358,2.4375,2.4389,2.4388,2.438,2.4385,2.4385,2.4395,2.4362,2.4359,2.4356,2.4345,2.4341,2.4393,2.4394,2.4394,2.4394,0,2.4204,2.4208,2.4202,2.4223,2.423,2.4228,2.4256,2.426,2.4279,2.4296,2.4298,2.4317,2.433,2.4331,2.4348,2.4332,2.4339,2.4357,2.4379,2.4347,2.4338,2.4335,2.439,2.4391,2.4392,2.4392,0,0,2.4137,2.4175,2.4172,2.4183,2.4209,2.4212,2.4212,2.4226,2.4229,2.4243,2.4244,2.4254,2.4271,2.428,2.4299,2.4296,2.4271,2.4314,2.4315,2.4305,2.4255,2.4241,2.4236,2.4284,2.4283,2.4283,2.4254,0,2.4103,2.4105,2.4132,2.4126,2.4131,2.4164,2.4164,2.418,2.4197,2.4203,2.4222,2.4229,2.425,2.4256,2.4255,2.4274,2.4261,2.4276,2.4285,2.4285,2.4279,2.4232,2.4217,2.4188,2.425,2.425,2.4249,0,2.4063,2.4076,2.4072,2.4099,2.4102,2.4102,2.4117,2.4123,2.4142,2.4155,2.4166,2.4188,2.419,2.4211,2.4215,2.4225,2.4231,2.4241,2.424,2.4242,2.4265,2.4232,2.418,2.4175,2.4244,2.4244,2.4245,0,2.4015,2.4032,2.4031,2.4039,2.4071,2.407,2.4083,2.4104,2.4111,2.4124,2.4129,2.4142,2.4149,2.4159,2.4184,2.4198,2.4186,2.4209,2.4196,2.4195,2.4191,2.4191,2.4139,2.4195,2.4195,2.4195,2.4195,0,2.3974,2.397,2.401,2.401,2.4007,2.4038,2.4033,2.405,2.4068,2.4071,2.4101,2.4103,2.4137,2.4143,2.4163,2.4164,2.4167,2.4177,2.4182,2.4174,2.4173,2.4178,2.418,2.4194,2.4194,2.4195,2.4195,0,2.3919,2.3946,2.3948,2.3978,2.3986,2.3982,2.4009,2.401,2.4029,2.4034,2.4036,2.4067,2.4076,2.4103,2.4119,2.4132,2.4127,2.4137,2.4121,2.4124,2.411,2.4111,2.4059,2.4054,2.4113,2.4112,2.4112,0,2.3891,2.3889,2.392,2.3925,2.3937,2.3944,2.3952,2.3983,2.3989,2.4012,2.4011,2.4023,2.4034,2.4048,2.4071,2.4084,2.4094,2.4075,2.4096,2.4089,2.4094,2.4094,2.4094,2.407,2.407,2.4069,2.4069,0,2.3839,2.3853,2.3863,2.3878,2.3887,2.39,2.3915,2.3917,2.3951,2.3958,2.3968,2.3977,2.3994,2.4006,2.4023,2.4037,2.4058,2.4062,2.406,2.4051,2.4042,2.4047,2.4108,2.4063,2.4063,2.4064,2.4064,2.4064,2.3797,2.3797,2.3819,2.383,2.3844,2.3858,2.3861,2.3881,2.3891,2.3908,2.3925,2.3934,2.3955,2.398,2.3992,2.3999,2.4011,2.4007,2.4006,2.4005,2.4002,2.4041,2.4003,2.4003,2.4003,2.4003,2.4003,0,2.3746,2.3762,2.3772,2.3792,2.3801,2.3822,2.384,2.3846,2.3853,2.3871,2.3882,2.3894,2.3907,2.3931,2.3946,2.3947,2.3957,2.395,2.395,2.3953,2.399,2.3991,2.3941,2.3941,2.3941,2.3941,2.3941,2.3941,2.3721,2.3722,2.3739,2.3748,2.3765,2.3774,2.3783,2.3795,2.381,2.3823,2.3833,2.385,2.3871,2.3887,2.3899,2.3906,2.391,2.3899,2.3909,2.3944,2.395,2.3955,2.3956,2.39,2.39,2.3871,2.3871,2.3871]}]]